Погода в Николаевке

Украина / Херсонская область     46°06′21″N   34°36′26″E
темп.,
°C
ветер,
м/с
пор.,
м/с
влажн.,
%
обл.,
%
осадки,
мм/ч
давл.,
гПа
погр.,
м
26 февраля, пт
пт2623:00+4зюз7994100 0.5 1030195
02:00+4зюз6995100 0.7 1029184
05:00+5зюз7994100 0.1 1028132
08:00+5зюз679492 0.1 102895
11:00+6з5592100 0.0 102737
14:00+7зсз788364 0.0 102563
17:00+8з79790 0.0 102366
20:00+7зюз710880 0.0 1022101
27 февраля, сб
сб2723:00+6зюз710910 0.0 1021136
02:00+6зюз812920 0.0 1020172
05:00+6зюз813920 0.0 1018197
08:00+6зюз812930 0.0 1018176
11:00+7з78860 0.0 101772
14:00+7зсз778417 0.0 101657
17:00+6ссз678697 0.0 101657
20:00+6сз668399 0.1 101756
28 февраля, вс
вс2823:00+5сз6780100 0.0 1018111
02:00+4сз5683100 0.0 1018112
05:00+4ссз4690100 0.2 1018142
08:00+4ссз6789100 0.3 1019452
11:00+4сз578798 0.1 1020420
14:00+4сз688394 0.1 1021237
17:00+4с578273 0.1 1021225
20:00+4ссз587786 0.3 1023287
1 марта, пн
пн123:00+4ссз4680100 0.1 1024350
02:00+3ссз5679100 0.1 1025534
05:00+3с457989 0.1 1025469
08:00+3с447794 0.2 1026438
11:00+3с237098 0.1 1027552
14:00+3сз227096 0.1 1027493
17:00+3ссз237266 0.0 1028373
20:00+3ссв228483 0.1 1029229
2 марта, вт
вт223:00+3ссв337787 0.1 1031275
02:00+2ссв457444 0.1 1031243
05:00+2ссв55760 0.0 1032225
08:00+2с44780 0.0 1032230
11:00+3ссз237126 0.0 1033363
14:00+3з456919 0.0 1032282
17:00+4з686611 0.0 1030191
20:00+4з7107430 0.0 1029283